#�ϑ�����,���ϕ���,���ϕ���,�ő啗��,�ő啗����������,�ő�u�ԕ���,�ő�u�ԕ�����������
#(�N����),(m/s)   ,(16����),(m/s)   ,(16����)        ,(m/s)       ,(16����)            
2017/8/4 10:56,4.5,6,4.5,6,4.5,5
2017/8/4 10:57,4.5,6,4.7,6,5.4,5
2017/8/4 10:58,3.6,6,4.3,6,4.7,6
2017/8/4 10:59,2.6,7,3.5,6,2.9,6
2017/8/4 11:00,2.2,7,2.5,6,2.5,5
2017/8/4 11:01,2.1,6,2.2,6,3.2,4
2017/8/4 11:02,2,6,2.1,6,3.2,6
2017/8/4 11:03,2,6,2,6,3.2,7
2017/8/4 11:04,2,6,2,6,3.6,5
2017/8/4 11:05,2.2,6,2.2,6,4.9,6
2017/8/4 11:06,2.3,6,2.3,6,4.7,7
2017/8/4 11:07,2.3,6,2.4,6,3.7,6
2017/8/4 11:08,2.2,6,2.3,6,3.1,6
2017/8/4 11:09,2.2,6,2.2,7,2.4,6
2017/8/4 11:10,2.2,6,2.3,6,2.2,7
2017/8/4 11:11,2.1,6,2.2,6,1.4,8
2017/8/4 11:12,2.1,6,2.1,6,1,5
2017/8/4 11:13,1.9,7,2,6,0.5,6
2017/8/4 11:14,1.8,7,1.9,6,2.9,9
2017/8/4 11:15,1.6,7,1.8,6,2.7,10
2017/8/4 11:16,1.5,7,1.6,6,3.5,9
2017/8/4 11:17,1.4,8,1.5,6,2.2,10
2017/8/4 11:18,1.3,8,1.4,6,1.8,12
2017/8/4 11:19,1.2,9,1.3,6,1.6,13
2017/8/4 11:20,1.1,9,1.2,6,1,11
2017/8/4 11:21,1,10,1.1,6,1.3,8
2017/8/4 11:22,1,10,1,6,0.6,10
2017/8/4 11:23,1,10,1,7,1,8
2017/8/4 11:24,1,11,1,7,1.5,11
2017/8/4 11:25,1,11,1,7,2,11
2017/8/4 11:26,0.8,11,0.9,7,2.1,11
2017/8/4 11:27,0.7,12,0.8,8,1.6,12
2017/8/4 11:28,0.7,11,0.7,8,3,8
2017/8/4 11:29,0.7,11,0.7,9,1.9,9
2017/8/4 11:30,0.8,11,0.8,9,2.9,8
2017/8/4 11:31,1,11,1,10,3.7,8
2017/8/4 11:32,1.2,10,1.2,10,4.1,8
2017/8/4 11:33,1.4,10,1.4,10,4.4,8
2017/8/4 11:34,1.7,9,1.7,9,6.3,6
2017/8/4 11:35,1.8,9,1.8,9,4.4,6
2017/8/4 11:36,2,9,2,9,4.4,8
2017/8/4 11:37,2,8,2.1,8,3,8
2017/8/4 11:38,2,8,2,8,1.1,7
2017/8/4 11:39,2.2,8,2.2,8,4.7,5
2017/8/4 11:40,2.4,8,2.4,8,5,6
2017/8/4 11:41,2.4,7,2.4,8,3.5,5
2017/8/4 11:42,2.3,7,2.4,8,2.9,6
2017/8/4 11:43,2.2,7,2.2,8,2.5,7
2017/8/4 11:44,2.1,7,2.2,8,3.5,6
2017/8/4 11:45,2.2,7,2.2,8,3.9,6
2017/8/4 11:46,2,6,2.2,8,2.6,5
2017/8/4 11:47,2.1,6,2.1,8,4.2,7
2017/8/4 11:48,2.3,6,2.3,8,3.3,6
2017/8/4 11:49,2.2,6,2.3,8,3.1,6
2017/8/4 11:50,2,6,2.2,8,3.3,10
2017/8/4 11:51,2,6,2,7,3.9,6
2017/8/4 11:52,2,6,2,6,2.7,6
2017/8/4 11:53,2.1,6,2.1,6,3.7,6
2017/8/4 11:54,2.1,6,2.1,6,3.6,7
2017/8/4 11:55,2,6,2.1,6,3.1,6
2017/8/4 11:56,2.1,6,2.1,6,2.4,5
2017/8/4 11:57,2,6,2,6,4.3,8
2017/8/4 11:58,2,6,2,6,3.8,8
2017/8/4 11:59,2,7,2,6,2.2,8
2017/8/4 12:00,2,7,2,6,2.2,8
2017/8/4 12:01,1.9,7,2,6,3.2,7
2017/8/4 12:02,1.9,7,1.9,6,3.1,8
2017/8/4 12:03,2,7,2,6,3.8,8
2017/8/4 12:04,1.9,7,2,6,3.7,8
2017/8/4 12:05,1.8,8,1.9,6,1.5,9
2017/8/4 12:06,1.8,8,1.8,6,4.1,6
2017/8/4 12:07,1.9,7,1.9,6,5.8,7
2017/8/4 12:08,2,7,2,6,5,6
2017/8/4 12:09,2.1,7,2.1,7,4.9,8
2017/8/4 12:10,2.3,7,2.3,7,5.1,7
2017/8/4 12:11,2.4,8,2.4,7,4.4,8
2017/8/4 12:12,2.5,7,2.5,7,5.4,7
2017/8/4 12:13,2.5,7,2.5,7,5.1,7
2017/8/4 12:14,2.5,7,2.5,7,4.1,5
2017/8/4 12:15,2.7,7,2.7,7,4.1,6
2017/8/4 12:16,2.7,7,2.8,7,3.5,6
2017/8/4 12:17,2.7,7,2.8,7,3.2,5
2017/8/4 12:18,2.6,6,2.6,7,3.1,5
2017/8/4 12:19,2.6,6,2.6,7,3.2,8
2017/8/4 12:20,2.6,6,2.6,7,4.4,6
2017/8/4 12:21,2.6,6,2.6,7,4.8,6
2017/8/4 12:22,2.5,6,2.6,7,4.2,7
2017/8/4 12:23,2.5,6,2.5,7,4.3,8
2017/8/4 12:24,2.5,6,2.5,7,3.7,6
2017/8/4 12:25,2.3,6,2.5,7,3.1,6
2017/8/4 12:26,2.3,6,2.3,7,2,7
2017/8/4 12:27,2.1,6,2.3,7,2,6
2017/8/4 12:28,2,7,2.1,6,1.5,7
2017/8/4 12:29,1.9,7,2,6,3.2,8
2017/8/4 12:30,1.8,7,1.9,6,3.9,9
2017/8/4 12:31,1.6,7,1.7,6,1.9,6
2017/8/4 12:32,1.6,7,1.6,6,3.5,6
2017/8/4 12:33,1.6,7,1.6,6,3.1,6
2017/8/4 12:34,1.5,7,1.6,6,2.6,7
2017/8/4 12:35,1.5,7,1.5,6,2.2,7
2017/8/4 12:36,1.4,7,1.4,6,1.4,8
2017/8/4 12:37,1.5,7,1.5,7,2.7,7
2017/8/4 12:38,1.6,7,1.6,7,2.7,7
2017/8/4 12:39,1.5,7,1.6,7,1.1,6
2017/8/4 12:40,1.4,7,1.4,7,2.6,7
2017/8/4 12:41,1.4,7,1.4,7,3,7
2017/8/4 12:42,1.4,7,1.5,7,3,7
2017/8/4 12:43,1.3,7,1.4,7,3.2,7
2017/8/4 12:44,1.3,7,1.3,7,2.6,6
2017/8/4 12:45,1.4,7,1.4,7,2.6,6
2017/8/4 12:46,1.4,6,1.4,7,2.5,5
2017/8/4 12:47,1.4,6,1.5,7,3.1,4
2017/8/4 12:48,1.5,6,1.5,7,2.6,4
2017/8/4 12:49,1.6,6,1.6,6,2.5,4
2017/8/4 12:50,1.6,5,1.6,6,2.4,6
2017/8/4 12:51,1.5,5,1.6,6,1.8,3
2017/8/4 12:52,1.5,5,1.5,6,3.2,7
2017/8/4 12:53,1.6,5,1.6,6,2.6,8
2017/8/4 12:54,1.6,5,1.7,5,2.5,8
2017/8/4 12:55,1.5,5,1.6,5,2.6,9
2017/8/4 12:56,1.5,6,1.6,5,1.9,7
2017/8/4 12:57,1.5,6,1.5,5,2.2,6
2017/8/4 12:58,1.4,6,1.5,5,1.5,4
2017/8/4 12:59,1.3,6,1.4,5,1.5,6
2017/8/4 13:00,1.2,7,1.3,5,1.1,8
2017/8/4 13:01,1.3,7,1.3,5,2.2,7
2017/8/4 13:02,1.3,7,1.3,5,3.3,7
2017/8/4 13:03,1.2,7,1.3,5,1.9,8
2017/8/4 13:04,1.2,7,1.2,5,2,6
2017/8/4 13:05,1.2,7,1.2,6,1.3,6
2017/8/4 13:06,1.1,7,1.2,6,0.8,10
2017/8/4 13:07,1,7,1,6,2.2,8
2017/8/4 13:08,1,7,1,6,2.4,8
2017/8/4 13:09,1.1,8,1.1,6,3.5,9
2017/8/4 13:10,1.1,8,1.1,7,1.6,9
2017/8/4 13:11,1.1,8,1.1,7,2.4,9
2017/8/4 13:12,1,9,1.1,7,1.5,10
2017/8/4 13:13,0.9,9,0.9,7,0.8,5
2017/8/4 13:14,0.8,9,0.9,7,0.9,2
2017/8/4 13:15,0.9,9,0.9,7,2.4,7
2017/8/4 13:16,0.9,8,0.9,8,1.9,6
2017/8/4 13:17,1,8,1,8,3.2,8
2017/8/4 13:18,1.2,8,1.2,8,3.5,8
2017/8/4 13:19,1.1,8,1.2,8,2.5,6
2017/8/4 13:20,1.1,7,1.2,8,1.8,6
2017/8/4 13:21,1.1,7,1.1,8,1.6,8
2017/8/4 13:22,1.1,7,1.1,8,1.8,6
2017/8/4 13:23,1.2,6,1.2,8,1.5,5
2017/8/4 13:24,1.4,6,1.4,6,3,6
2017/8/4 13:25,1.4,6,1.4,6,2.7,6
2017/8/4 13:26,1.5,6,1.5,6,1.8,5
2017/8/4 13:27,1.4,6,1.5,6,1.5,6
2017/8/4 13:28,1.3,6,1.4,6,2.7,7
2017/8/4 13:29,1.3,6,1.3,6,1.8,7
2017/8/4 13:30,1.3,6,1.3,6,1.9,9
2017/8/4 13:31,1.4,6,1.4,6,3,8
2017/8/4 13:32,1.4,6,1.4,6,1.9,6
2017/8/4 13:33,1.4,7,1.4,6,2.4,8
2017/8/4 13:34,1.2,6,1.4,6,1.6,6
2017/8/4 13:35,1.1,7,1.2,6,1.5,10
2017/8/4 13:36,1,7,1.1,6,2.2,16
2017/8/4 13:37,1,6,1.1,6,1.6,2
2017/8/4 13:38,0.9,5,1,6,0.6,4
2017/8/4 13:39,0.9,5,0.9,6,1.1,8
2017/8/4 13:40,0.8,5,0.9,6,0.9,6
2017/8/4 13:41,0.6,4,0.8,6,0.6,6
2017/8/4 13:42,0.6,3,0.6,6,2.4,3
2017/8/4 13:43,0.8,3,0.8,7,3,5
2017/8/4 13:44,1,4,1,6,4.4,5
2017/8/4 13:45,1.3,4,1.3,4,3.8,6
2017/8/4 13:46,1.4,5,1.4,4,3.1,6
2017/8/4 13:47,1.5,5,1.5,5,4.4,5
2017/8/4 13:48,1.9,5,1.9,5,4.8,6
2017/8/4 13:49,2.1,6,2.1,6,4.7,6
2017/8/4 13:50,2.4,6,2.4,6,4.4,7
2017/8/4 13:51,2.6,6,2.6,6,3.9,6
2017/8/4 13:52,2.6,6,2.7,6,3.2,4
2017/8/4 13:53,2.5,6,2.6,6,2.1,8
2017/8/4 13:54,2.3,6,2.5,6,3.2,5
2017/8/4 13:55,2.2,6,2.3,6,3.9,7
2017/8/4 13:56,2.3,6,2.3,6,4.5,6
2017/8/4 13:57,2.2,6,2.3,6,3.3,8
2017/8/4 13:58,2.1,6,2.2,6,3.5,6
2017/8/4 13:59,2.1,6,2.1,6,4.5,6
2017/8/4 14:00,2.1,6,2.1,6,6.1,7
2017/8/4 14:01,2.2,6,2.2,6,5.4,6
2017/8/4 14:02,2.5,6,2.5,6,5.1,6
2017/8/4 14:03,2.6,6,2.6,6,3.9,6
2017/8/4 14:04,2.7,6,2.7,6,3.9,5
2017/8/4 14:05,2.7,6,2.8,6,3.7,5
2017/8/4 14:06,2.7,6,2.7,6,3.7,6
2017/8/4 14:07,2.7,6,2.7,6,3.2,7
2017/8/4 14:08,2.7,6,2.8,6,3.1,6
2017/8/4 14:09,2.5,6,2.6,6,3.5,5
2017/8/4 14:10,2.2,6,2.5,6,3,4
2017/8/4 14:11,2.1,6,2.2,6,3.7,8
2017/8/4 14:12,2,7,2,6,5.4,10
2017/8/4 14:13,2.1,7,2.1,6,8.2,8
2017/8/4 14:14,2.2,7,2.2,6,6.5,8
2017/8/4 14:15,2.1,8,2.2,6,3.1,7
2017/8/4 14:16,2.2,8,2.2,6,4.4,6
2017/8/4 14:17,2.2,8,2.2,6,3.7,7
2017/8/4 14:18,2.2,8,2.2,6,3.8,7
2017/8/4 14:19,2.3,8,2.3,6,3.9,7
2017/8/4 14:20,2.4,8,2.4,8,4.1,9
2017/8/4 14:21,2.5,8,2.5,8,4.8,9
2017/8/4 14:22,2.4,8,2.5,8,4.9,7
2017/8/4 14:23,2.2,8,2.4,8,3.2,9
2017/8/4 14:24,2.1,8,2.2,8,3.7,6
2017/8/4 14:25,2.2,8,2.2,8,4.3,8
2017/8/4 14:26,2.3,8,2.3,8,6.1,8
2017/8/4 14:27,2.4,8,2.4,8,6,7
2017/8/4 14:28,2.6,8,2.6,8,6,8
2017/8/4 14:29,2.8,8,2.8,8,6.5,9
2017/8/4 14:30,2.8,8,2.9,8,4.7,8
2017/8/4 14:31,2.8,8,2.9,8,5,9
2017/8/4 14:32,3,8,3,8,4.9,10
2017/8/4 14:33,3,8,3,8,4.2,8
2017/8/4 14:34,2.9,9,3,8,2.6,10
2017/8/4 14:35,3,9,3,8,5.6,8
2017/8/4 14:36,2.8,9,2.9,8,5,8
2017/8/4 14:37,2.7,9,2.8,8,4.8,9
2017/8/4 14:38,2.8,9,2.8,8,5.4,9
2017/8/4 14:39,2.5,9,2.8,8,4.5,8
2017/8/4 14:40,2.7,9,2.7,8,6.3,8
2017/8/4 14:41,2.7,9,2.7,8,6.9,9
2017/8/4 14:42,2.8,9,2.8,8,6.9,8
2017/8/4 14:43,2.9,9,2.9,8,6.2,8
2017/8/4 14:44,3.2,9,3.2,9,7,8
2017/8/4 14:45,3.3,9,3.3,9,5,8
2017/8/4 14:46,3.4,9,3.4,9,5,9
2017/8/4 14:47,3.4,8,3.4,9,3.5,8
2017/8/4 14:48,3.1,8,3.4,9,3.2,7
2017/8/4 14:49,3.2,8,3.2,9,4.4,9
2017/8/4 14:50,3.1,8,3.2,9,5.1,9
2017/8/4 14:51,3.2,8,3.2,9,5.4,8
2017/8/4 14:52,3.1,8,3.2,9,5.7,9
2017/8/4 14:53,3,8,3.1,9,5.2,7
2017/8/4 14:54,3,8,3,9,5.4,8
2017/8/4 14:55,2.9,8,3,9,5.1,8
2017/8/4 14:56,2.8,9,2.9,9,5.4,8
2017/8/4 14:57,2.9,9,2.9,8,6.2,9
2017/8/4 14:58,3.1,9,3.1,8,5.7,10
2017/8/4 14:59,3.1,9,3.1,8,4.9,9
2017/8/4 15:00,3.1,9,3.1,8,4.4,10
2017/8/4 15:01,3,9,3.1,8,4.5,9
2017/8/4 15:02,2.8,9,3,8,4.2,9
2017/8/4 15:03,2.7,9,2.8,9,3.2,8
2017/8/4 15:04,2.5,9,2.7,9,3.1,8
2017/8/4 15:05,2.5,9,2.5,9,3.7,8
2017/8/4 15:06,2.5,9,2.6,9,4.9,8
2017/8/4 15:07,2.6,9,2.6,9,5,9
2017/8/4 15:08,2.4,9,2.6,9,4.4,9
2017/8/4 15:09,2.4,9,2.4,9,5.8,10
2017/8/4 15:10,2.4,9,2.4,9,5.4,10
2017/8/4 15:11,2.4,9,2.4,9,4.5,9
2017/8/4 15:12,2.2,9,2.4,9,2,9
2017/8/4 15:13,2.2,9,2.2,9,3.9,8
2017/8/4 15:14,2.2,9,2.2,9,3.3,8
2017/8/4 15:15,2.3,9,2.3,9,4.4,8
2017/8/4 15:16,2.2,9,2.3,9,4.1,8
2017/8/4 15:17,2.2,9,2.3,9,5.2,8
2017/8/4 15:18,2.2,9,2.2,9,5,9
2017/8/4 15:19,2.3,9,2.3,9,4.5,8
2017/8/4 15:20,2.4,9,2.4,9,5.7,8
2017/8/4 15:21,2.3,9,2.4,9,3.3,8
2017/8/4 15:22,2.5,9,2.5,9,3.5,7
2017/8/4 15:23,2.6,8,2.6,8,4.8,7
2017/8/4 15:24,2.8,8,2.8,8,5,7
2017/8/4 15:25,2.9,8,2.9,8,6,8
2017/8/4 15:26,2.9,8,2.9,8,3.9,9
2017/8/4 15:27,2.8,8,2.9,8,3.9,9
2017/8/4 15:28,2.8,8,2.8,8,4.5,8
2017/8/4 15:29,2.8,8,2.8,8,5.6,8
2017/8/4 15:30,2.7,8,2.8,8,4.4,9
2017/8/4 15:31,2.8,8,2.8,8,3.9,8
2017/8/4 15:32,2.7,8,2.8,8,4.1,9
2017/8/4 15:33,2.8,8,2.8,8,6,9
2017/8/4 15:34,2.7,8,2.8,8,4.7,10
2017/8/4 15:35,2.5,8,2.7,8,3.2,9
2017/8/4 15:36,2.7,8,2.7,8,5.7,10
2017/8/4 15:37,2.8,8,2.8,8,5.5,10
2017/8/4 15:38,2.8,9,2.8,8,4.3,9
2017/8/4 15:39,2.7,9,2.8,8,3.7,10
2017/8/4 15:40,2.6,9,2.7,8,2.9,9
2017/8/4 15:41,2.7,9,2.7,8,6.8,10
2017/8/4 15:42,2.9,9,2.9,9,5.7,9
2017/8/4 15:43,2.9,9,2.9,9,5,8
2017/8/4 15:44,2.9,9,2.9,9,5.5,9
2017/8/4 15:45,3.1,9,3.1,9,5.1,9
2017/8/4 15:46,3,9,3.1,9,3.6,9
2017/8/4 15:47,2.8,9,2.9,9,3.6,9
2017/8/4 15:48,2.8,9,2.8,9,3.5,9
2017/8/4 15:49,2.8,9,2.8,9,3,8
2017/8/4 15:50,2.8,9,2.8,9,2.9,8
2017/8/4 15:51,2.6,9,2.8,9,2.7,9
2017/8/4 15:52,2.5,9,2.6,9,3.7,9
2017/8/4 15:53,2.3,9,2.5,9,3,8
2017/8/4 15:54,2.2,9,2.3,9,3.2,8
2017/8/4 15:55,2.1,9,2.2,9,4.1,9
2017/8/4 15:56,2,9,2,9,2.5,9
2017/8/4 15:57,1.9,9,2,9,2.9,7
2017/8/4 15:58,1.9,8,1.9,9,3.7,8
2017/8/4 15:59,1.7,9,1.8,9,2.5,8
2017/8/4 16:00,1.7,9,1.7,9,2.7,10
2017/8/4 16:01,1.9,9,1.9,9,5.7,10
2017/8/4 16:02,1.9,9,2,9,4.8,9
2017/8/4 16:03,2,9,2,9,3.9,8
2017/8/4 16:04,2.1,9,2.1,9,4.2,7
2017/8/4 16:05,2,9,2.1,9,3.8,9
2017/8/4 16:06,2.1,8,2.1,9,3.7,7
2017/8/4 16:07,2.2,9,2.2,9,2.5,8
2017/8/4 16:08,2.1,8,2.2,9,2.1,9
2017/8/4 16:09,2.1,8,2.1,9,2.1,6
2017/8/4 16:10,2.1,8,2.1,9,2.5,7
2017/8/4 16:11,1.8,8,2,9,2,9
2017/8/4 16:12,1.7,8,1.8,9,3.5,8
2017/8/4 16:13,1.7,8,1.8,9,3.5,8
2017/8/4 16:14,1.6,8,1.7,9,2.7,8
2017/8/4 16:15,1.7,8,1.7,9,3.7,8
2017/8/4 16:16,1.7,8,1.7,9,4.1,8
2017/8/4 16:17,1.7,8,1.7,9,3.2,8
2017/8/4 16:18,1.8,8,1.8,8,3,8
2017/8/4 16:19,1.9,8,1.9,8,3.1,8
2017/8/4 16:20,2,8,2,8,3.1,10
2017/8/4 16:21,2,8,2,8,2.4,8
2017/8/4 16:22,2,8,2,8,2.2,9
2017/8/4 16:23,1.9,8,1.9,8,2.2,8
2017/8/4 16:24,1.9,8,1.9,8,1.5,8
2017/8/4 16:25,1.7,9,1.9,8,2,11
2017/8/4 16:26,1.6,9,1.7,8,2.5,9
2017/8/4 16:27,1.5,9,1.6,8,2.1,9
2017/8/4 16:28,1.4,9,1.5,8,1.9,10
2017/8/4 16:29,1.3,9,1.4,8,1.8,9
2017/8/4 16:30,1.2,9,1.3,8,1.9,11
2017/8/4 16:31,1.2,10,1.2,8,2.5,10
2017/8/4 16:32,1.3,10,1.3,8,2,9
2017/8/4 16:33,1.2,10,1.3,8,2.6,8
2017/8/4 16:34,1.3,10,1.3,8,3.3,9
2017/8/4 16:35,1.3,10,1.3,9,1.9,9
2017/8/4 16:36,1.3,10,1.3,9,2,9
2017/8/4 16:37,1.3,10,1.3,9,1.8,10
2017/8/4 16:38,1.2,10,1.3,9,1.9,9
2017/8/4 16:39,1.2,10,1.2,9,1.8,8
2017/8/4 16:40,1.2,10,1.2,10,1.1,9
2017/8/4 16:41,1.1,10,1.1,10,2.1,9
2017/8/4 16:42,1,9,1,10,2,10
2017/8/4 16:43,1,10,1,10,2.1,10
2017/8/4 16:44,1,10,1,10,2.1,11
2017/8/4 16:45,1,10,1,10,1.8,10
2017/8/4 16:46,0.9,10,0.9,10,1.6,12
2017/8/4 16:47,0.9,10,0.9,10,1.5,10
2017/8/4 16:48,0.9,11,0.9,10,1.4,10
2017/8/4 16:49,0.9,11,0.9,10,1.6,10
2017/8/4 16:50,1,11,1,10,2.1,10
2017/8/4 16:51,1.1,11,1.1,11,1.4,9
2017/8/4 16:52,1.1,11,1.1,11,1.4,10
2017/8/4 16:53,1,10,1.1,11,1.1,9
2017/8/4 16:54,0.9,10,1,11,2.6,8
2017/8/4 16:55,1,10,1,11,3.3,9
2017/8/4 16:56,1.1,10,1.1,11,3.7,8
2017/8/4 16:57,1.3,9,1.3,9,3.3,9
2017/8/4 16:58,1.4,9,1.4,9,2.9,8
2017/8/4 16:59,1.5,9,1.5,9,3.2,6
2017/8/4 17:00,1.5,9,1.5,9,3.2,6
2017/8/4 17:01,1.5,9,1.5,9,2.7,8
2017/8/4 17:02,1.7,9,1.7,9,3.1,8
2017/8/4 17:03,1.9,9,1.9,9,3.2,9
2017/8/4 17:04,2,9,2,9,3.3,8
2017/8/4 17:05,2,9,2,9,2.7,9
2017/8/4 17:06,2,9,2,9,3.5,10
2017/8/4 17:07,1.9,9,1.9,9,1.9,9
2017/8/4 17:08,1.9,9,1.9,9,3.5,8
2017/8/4 17:09,1.9,9,1.9,9,3.7,9
2017/8/4 17:10,2,9,2,9,3.9,8
2017/8/4 17:11,2.1,9,2.1,9,3.2,8
2017/8/4 17:12,1.9,9,2,9,1.6,8
2017/8/4 17:13,1.8,9,1.9,9,2.5,8
2017/8/4 17:14,1.8,9,1.8,9,2.7,8
2017/8/4 17:15,1.8,9,1.8,9,3.3,10
2017/8/4 17:16,1.7,9,1.8,9,2.4,9
2017/8/4 17:17,1.9,9,1.9,9,3.7,8
2017/8/4 17:18,1.9,9,1.9,9,3.1,8
2017/8/4 17:19,1.9,8,1.9,9,3.6,9
2017/8/4 17:20,1.9,9,1.9,9,3.7,8
2017/8/4 17:21,1.9,9,1.9,9,3.1,8
2017/8/4 17:22,2,9,2,9,2.5,8
2017/8/4 17:23,2.1,9,2.1,9,4.1,8
2017/8/4 17:24,2.1,9,2.1,9,3.8,9
2017/8/4 17:25,2.1,9,2.1,9,3.8,8
2017/8/4 17:26,2.2,8,2.2,9,3.2,9
2017/8/4 17:27,2.1,9,2.3,9,3.1,8
2017/8/4 17:28,2.2,9,2.2,9,4.2,8
2017/8/4 17:29,2.2,8,2.2,9,3.9,8
2017/8/4 17:30,2.2,8,2.2,9,3.6,8
2017/8/4 17:31,2.2,8,2.2,9,3.3,7
2017/8/4 17:32,2.2,8,2.2,9,3.1,9
2017/8/4 17:33,2.1,8,2.2,9,2.7,8
2017/8/4 17:34,2.2,8,2.2,9,3.7,8
2017/8/4 17:35,2.3,8,2.3,9,4.1,8
2017/8/4 17:36,2.3,8,2.4,8,4.8,7
2017/8/4 17:37,2.5,8,2.5,8,4.5,9
2017/8/4 17:38,2.5,8,2.5,8,3.7,9
2017/8/4 17:39,2.4,8,2.5,8,3.7,9
2017/8/4 17:40,2.4,9,2.4,8,3.9,9
2017/8/4 17:41,2.3,9,2.3,8,2.6,9
2017/8/4 17:42,2.3,9,2.3,8,3.7,10
2017/8/4 17:43,2.3,9,2.3,8,3,9
2017/8/4 17:44,2.1,9,2.3,8,3.1,9
2017/8/4 17:45,2.1,9,2.1,8,3.1,8
2017/8/4 17:46,2.2,9,2.2,8,5.1,8
2017/8/4 17:47,2.2,9,2.3,8,4.7,8
2017/8/4 17:48,2.1,9,2.2,8,3.9,8
2017/8/4 17:49,2.1,9,2.1,8,3.9,10
2017/8/4 17:50,2.3,9,2.3,9,4.5,8
2017/8/4 17:51,2.4,9,2.4,9,4.3,8
2017/8/4 17:52,2.5,9,2.5,9,4.3,9
2017/8/4 17:53,2.5,8,2.5,9,2.9,9
2017/8/4 17:54,2.6,8,2.6,8,3.5,8
2017/8/4 17:55,2.7,9,2.7,8,4.5,9
2017/8/4 17:56,2.6,9,2.7,8,4.8,9
2017/8/4 17:57,2.5,9,2.6,8,4.3,8
2017/8/4 17:58,2.7,9,2.7,8,4.1,8
2017/8/4 17:59,2.7,9,2.7,8,3.8,8
2017/8/4 18:00,2.6,9,2.7,8,5,9
2017/8/4 18:01,2.6,9,2.6,8,4.5,9
2017/8/4 18:02,2.6,9,2.6,8,3.9,9
2017/8/4 18:03,2.6,9,2.6,8,2.9,8
2017/8/4 18:04,2.5,9,2.6,8,1.9,9
2017/8/4 18:05,2.3,8,2.5,9,2.6,8
2017/8/4 18:06,2.3,8,2.3,9,3.6,9
2017/8/4 18:07,2.2,8,2.2,9,3.3,6
2017/8/4 18:08,2.1,8,2.2,9,3.8,7
2017/8/4 18:09,2.1,8,2.1,9,3.1,8
2017/8/4 18:10,2,8,2.1,9,2.7,8
2017/8/4 18:11,2,7,2,9,3.8,8
2017/8/4 18:12,1.9,7,2,9,3.1,7
2017/8/4 18:13,2,7,2,9,4.2,7
2017/8/4 18:14,2.2,7,2.2,9,4.8,6
2017/8/4 18:15,2.4,7,2.4,7,5.2,7
2017/8/4 18:16,2.4,7,2.4,7,4.7,7
2017/8/4 18:17,2.4,7,2.4,7,3.8,7
2017/8/4 18:18,2.3,7,2.3,7,3.7,8
2017/8/4 18:19,2.4,7,2.4,7,4.2,7
2017/8/4 18:20,2.4,7,2.4,7,4.7,7
2017/8/4 18:21,2.5,7,2.5,7,4.3,8
2017/8/4 18:22,2.6,7,2.6,7,4.3,8
2017/8/4 18:23,2.6,7,2.6,7,4.4,8
2017/8/4 18:24,2.5,7,2.6,7,3.8,8
2017/8/4 18:25,2.3,7,2.5,7,2.9,6
2017/8/4 18:26,2.2,7,2.3,7,2.2,7
2017/8/4 18:27,2.3,7,2.4,7,4.2,7
2017/8/4 18:28,2.4,7,2.4,7,4.5,8
2017/8/4 18:29,2.4,8,2.4,7,3.8,8
2017/8/4 18:30,2.3,8,2.3,7,3.2,9
2017/8/4 18:31,2.2,8,2.2,7,3.9,8
2017/8/4 18:32,2.3,8,2.3,7,5,8
2017/8/4 18:33,2.3,8,2.3,7,3.8,8
2017/8/4 18:34,2.4,8,2.4,7,4.8,10
2017/8/4 18:35,2.4,8,2.4,7,3.8,8
2017/8/4 18:36,2.5,8,2.5,8,4.1,7
2017/8/4 18:37,2.5,8,2.5,8,4.7,7
2017/8/4 18:38,2.7,8,2.7,8,6,7
2017/8/4 18:39,2.9,8,2.9,8,5.5,8
2017/8/4 18:40,3,8,3,8,5,8
2017/8/4 18:41,3.1,8,3.1,8,3.8,8
2017/8/4 18:42,3.1,8,3.1,8,5.8,8
2017/8/4 18:43,3.1,8,3.1,8,4.1,7
2017/8/4 18:44,3.1,8,3.1,8,4.2,8
2017/8/4 18:45,3.2,7,3.2,8,4.4,7
2017/8/4 18:46,3.3,7,3.3,7,4.5,8
2017/8/4 18:47,3.3,7,3.3,7,4.1,9
2017/8/4 18:48,3.1,8,3.2,7,4.9,8
2017/8/4 18:49,3,8,3.1,7,5,7
2017/8/4 18:50,3,8,3,7,5.2,7
2017/8/4 18:51,3.1,7,3.1,7,5,8
2017/8/4 18:52,3,7,3.1,7,5.1,8
2017/8/4 18:53,3,7,3.1,7,4.9,8
2017/8/4 18:54,3,7,3.1,7,4.4,6
2017/8/4 18:55,2.9,7,3,7,4.4,7
2017/8/4 18:56,3,7,3,7,5.6,8
2017/8/4 18:57,3,7,3,7,4.5,7
2017/8/4 18:58,3,7,3,8,5.6,7
2017/8/4 18:59,3.2,7,3.2,7,6.2,7
2017/8/4 19:00,3.2,7,3.2,7,4.4,7
2017/8/4 19:01,3.1,7,3.2,7,3.5,8
2017/8/4 19:02,2.8,7,3.1,7,2,9
2017/8/4 19:03,2.6,7,2.8,7,0.6,5
2017/8/4 19:04,2.4,7,2.5,7,0.8,6
2017/8/4 19:05,2.3,7,2.3,7,3.9,6
2017/8/4 19:06,2.1,7,2.3,7,3.7,5
2017/8/4 19:07,2,7,2.1,7,3.2,6
2017/8/4 19:08,1.9,7,2,7,4.1,6
2017/8/4 19:09,1.6,7,1.9,7,2.2,4
2017/8/4 19:10,1.5,6,1.6,7,3.5,6
2017/8/4 19:11,1.5,6,1.5,7,3.2,6
2017/8/4 19:12,1.6,6,1.6,7,2.5,5
2017/8/4 19:13,1.7,6,1.7,7,2.4,4
2017/8/4 19:14,1.8,6,1.8,7,2,5
2017/8/4 19:15,1.9,6,1.9,7,3.3,6
2017/8/4 19:16,1.8,6,1.8,7,2.4,6
2017/8/4 19:17,1.8,6,1.8,7,3.3,8
2017/8/4 19:18,1.9,6,1.9,7,3.9,7
2017/8/4 19:19,2,6,2,6,3.7,6
2017/8/4 19:20,2,6,2,6,3.5,6
2017/8/4 19:21,2.1,6,2.1,6,3.1,6
2017/8/4 19:22,2,6,2.1,6,2.6,6
2017/8/4 19:23,2,6,2,6,1.8,6
2017/8/4 19:24,1.9,6,1.9,6,1.1,6
2017/8/4 19:25,1.8,6,1.9,6,2.1,4
2017/8/4 19:26,1.8,6,1.8,6,1.8,6
2017/8/4 19:27,1.7,6,1.8,6,1.8,7
2017/8/4 19:28,1.4,6,1.7,6,1.1,4
2017/8/4 19:29,1.4,6,1.4,6,2,5
2017/8/4 19:30,1.3,6,1.4,6,2.1,4
2017/8/4 19:31,1.2,6,1.2,6,2.1,6
2017/8/4 19:32,1.1,6,1.2,6,1.8,6
2017/8/4 19:33,1.1,6,1.1,6,1.3,7
2017/8/4 19:34,1.1,6,1.1,6,1.4,2
2017/8/4 19:35,1.1,5,1.1,6,2.4,3
2017/8/4 19:36,1.1,5,1.1,6,2.2,3
2017/8/4 19:37,1.1,5,1.1,6,1.9,3
2017/8/4 19:38,1.2,4,1.2,6,2.1,3
2017/8/4 19:39,1.2,4,1.2,6,2,4
2017/8/4 19:40,1.2,4,1.2,6,2.5,4
2017/8/4 19:41,1.2,4,1.2,6,2,2
2017/8/4 19:42,1.3,3,1.3,3,2.7,4
2017/8/4 19:43,1.4,3,1.4,3,2.7,4
2017/8/4 19:44,1.5,3,1.5,3,2.6,5
2017/8/4 19:45,1.6,4,1.6,3,3.3,5
2017/8/4 19:46,1.8,4,1.8,4,3.5,4
2017/8/4 19:47,1.8,4,1.9,4,2.9,5
2017/8/4 19:48,1.9,4,1.9,4,1.9,4
2017/8/4 19:49,1.9,4,1.9,4,2.2,4
2017/8/4 19:50,1.8,4,1.9,4,1.4,6
2017/8/4 19:51,1.8,4,1.8,4,2.4,3
2017/8/4 19:52,1.8,5,1.8,4,2.2,5
2017/8/4 19:53,1.7,5,1.8,4,2.1,5
2017/8/4 19:54,1.7,5,1.7,4,2,5
2017/8/4 19:55,1.6,5,1.7,4,2.1,6
2017/8/4 19:56,1.5,5,1.6,4,1.8,5
2017/8/4 19:57,1.4,5,1.5,4,1.8,3
2017/8/4 19:58,1.4,5,1.4,4,2.2,6
2017/8/4 19:59,1.4,5,1.4,4,2.4,5
2017/8/4 20:00,1.5,5,1.5,4,2.2,5
2017/8/4 20:01,1.4,5,1.5,5,1.5,5
2017/8/4 20:02,1.3,5,1.4,5,1.4,4
2017/8/4 20:03,1.3,5,1.3,5,1.4,6
2017/8/4 20:04,1.2,5,1.3,5,0.6,7
2017/8/4 20:05,1.1,5,1.2,5,1.1,3
2017/8/4 20:06,1,5,1.1,5,1,3
2017/8/4 20:07,1,5,1,5,0.8,3
2017/8/4 20:08,0.9,4,1,5,1.4,2
2017/8/4 20:09,0.8,4,0.9,5,1.3,3
2017/8/4 20:10,0.8,4,0.8,5,1,3
2017/8/4 20:11,0.8,3,0.8,5,1.5,3
2017/8/4 20:12,0.7,3,0.8,5,1.1,2
2017/8/4 20:13,0.7,3,0.8,5,1.4,3
2017/8/4 20:14,0.8,3,0.8,5,0.9,2
2017/8/4 20:15,0.7,3,0.8,5,0.9,1
2017/8/4 20:16,0.7,2,0.7,5,1,1
2017/8/4 20:17,0.7,2,0.7,5,0.5,3
2017/8/4 20:18,0.7,2,0.7,4,1.1,2
2017/8/4 20:19,0.7,2,0.7,4,1.3,2
2017/8/4 20:20,0.7,2,0.7,4,1.5,2
2017/8/4 20:21,0.7,2,0.7,3,1.1,2
2017/8/4 20:22,0.7,2,0.7,3,1.4,2
2017/8/4 20:23,0.7,2,0.7,3,1.3,2
2017/8/4 20:24,0.7,2,0.7,3,1.1,3
2017/8/4 20:25,0.8,2,0.8,2,1,3
2017/8/4 20:26,0.8,2,0.8,2,1,3
2017/8/4 20:27,0.8,2,0.8,2,1.3,3
2017/8/4 20:28,0.9,2,0.9,2,2,3
2017/8/4 20:29,1,2,1,2,2,3
2017/8/4 20:30,1,3,1,2,2,3
2017/8/4 20:31,1.1,3,1.1,3,1.9,3
2017/8/4 20:32,1.1,3,1.1,3,1.6,1
2017/8/4 20:33,1.1,3,1.1,3,1.9,3
2017/8/4 20:34,1.2,3,1.2,3,2,2
2017/8/4 20:35,1.3,3,1.3,3,1.9,2
2017/8/4 20:36,1.4,3,1.4,3,2,3
2017/8/4 20:37,1.4,3,1.4,3,2.1,3
2017/8/4 20:38,1.4,3,1.4,3,2.2,3
2017/8/4 20:39,1.4,3,1.5,3,2.4,3
2017/8/4 20:40,1.4,2,1.4,3,1.8,2
2017/8/4 20:41,1.4,2,1.4,3,2,3
2017/8/4 20:42,1.4,3,1.4,3,1.8,3
2017/8/4 20:43,1.4,2,1.4,3,1.8,3
2017/8/4 20:44,1.4,2,1.4,3,1.9,2
2017/8/4 20:45,1.4,2,1.4,3,2.2,4
2017/8/4 20:46,1.4,2,1.4,3,2.5,3
2017/8/4 20:47,1.5,3,1.5,3,2.2,3
2017/8/4 20:48,1.4,2,1.5,3,1.9,3
2017/8/4 20:49,1.4,2,1.4,3,1.8,2
2017/8/4 20:50,1.4,2,1.4,3,1.8,1
2017/8/4 20:51,1.3,2,1.4,3,2,2
2017/8/4 20:52,1.4,2,1.4,3,2.1,4
2017/8/4 20:53,1.5,2,1.5,3,2.5,3
2017/8/4 20:54,1.5,3,1.5,3,2.5,3
2017/8/4 20:55,1.5,3,1.6,3,2.5,3
2017/8/4 20:56,1.5,2,1.5,3,2.5,3
2017/8/4 20:57,1.5,2,1.5,3,2.9,2
2017/8/4 20:58,1.7,3,1.7,2,3.7,3
2017/8/4 20:59,1.8,3,1.8,3,3.5,3
2017/8/4 21:00,1.9,3,1.9,3,3.3,3
2017/8/4 21:01,2,3,2,3,2.9,2
2017/8/4 21:02,2.1,3,2.1,3,3.1,3
2017/8/4 21:03,2,3,2.1,3,2.5,3
2017/8/4 21:04,2,3,2,3,2.2,2
2017/8/4 21:05,1.9,3,2,3,2.2,4
2017/8/4 21:06,1.9,3,1.9,3,2.2,2
2017/8/4 21:07,1.9,3,1.9,3,2.6,2
2017/8/4 21:08,1.8,3,1.9,3,2.9,3
2017/8/4 21:09,1.8,3,1.8,3,2.9,3
2017/8/4 21:10,1.8,3,1.8,3,2.5,3
2017/8/4 21:11,1.7,3,1.8,3,1.8,3
2017/8/4 21:12,1.6,3,1.7,3,1.8,4
2017/8/4 21:13,1.5,3,1.6,3,1.4,4
2017/8/4 21:14,1.4,4,1.5,3,1.3,6
2017/8/4 21:15,1.4,4,1.4,3,1,5
2017/8/4 21:16,1.3,4,1.4,3,1.5,6
2017/8/4 21:17,1.2,5,1.3,3,1.6,6
2017/8/4 21:18,1.2,5,1.2,3,1.8,6
2017/8/4 21:19,1.1,5,1.2,3,1.6,6
2017/8/4 21:20,1,6,1.1,3,2,6
2017/8/4 21:21,1,6,1,3,1.4,9
2017/8/4 21:22,1,6,1,3,2.4,6
2017/8/4 21:23,1.1,7,1.1,3,2.2,7
2017/8/4 21:24,1.1,7,1.1,4,2,8
2017/8/4 21:25,1.2,7,1.2,4,2.1,6
2017/8/4 21:26,1.3,7,1.3,4,2,7
2017/8/4 21:27,1.3,7,1.3,7,1.8,9
2017/8/4 21:28,1.2,7,1.3,7,1.5,7
2017/8/4 21:29,1.2,7,1.2,7,2.1,7
2017/8/4 21:30,1.2,7,1.2,7,2.2,8
2017/8/4 21:31,1.2,7,1.2,7,2.2,8
2017/8/4 21:32,1.3,7,1.3,7,2.6,9
2017/8/4 21:33,1.3,7,1.3,7,2.1,8
2017/8/4 21:34,1.3,8,1.3,7,2.5,8
2017/8/4 21:35,1.3,8,1.3,7,2.4,7
2017/8/4 21:36,1.3,8,1.3,7,2.6,8
2017/8/4 21:37,1.4,8,1.4,8,2.1,9
2017/8/4 21:38,1.4,8,1.4,8,1.8,7
2017/8/4 21:39,1.4,8,1.4,8,1.6,6
2017/8/4 21:40,1.4,7,1.4,8,1.6,5
2017/8/4 21:41,1.3,7,1.4,8,1.3,5
2017/8/4 21:42,1.1,7,1.3,8,0.4,2
2017/8/4 21:43,1,6,1.1,8,0.5,7
2017/8/4 21:44,0.9,6,1,8,0.6,6
2017/8/4 21:45,0.8,6,0.9,8,0.8,7
2017/8/4 21:46,0.6,6,0.8,8,0.9,6
2017/8/4 21:47,0.5,5,0.6,8,0.8,5
2017/8/4 21:48,0.5,5,0.5,8,0.9,5
2017/8/4 21:49,0.4,5,0.4,8,1.1,5
2017/8/4 21:50,0.4,5,0.4,7,1,5
2017/8/4 21:51,0.4,5,0.4,7,0.6,3
2017/8/4 21:52,0.4,5,0.4,7,0.6,5
2017/8/4 21:53,0.4,5,0.4,6,0.5,7
2017/8/4 21:54,0.5,5,0.5,6,1.3,5
2017/8/4 21:55,0.5,5,0.5,6,1.1,5
2017/8/4 21:56,0.4,5,0.5,6,0.8,4
2017/8/4 21:57,0.5,5,0.5,5,1.3,4
2017/8/4 21:58,0.5,4,0.5,5,1.4,4
2017/8/4 21:59,0.5,4,0.5,5,0.9,4
2017/8/4 22:00,0.5,4,0.5,5,1,16
2017/8/4 22:01,0.5,3,0.5,5,0.9,1
2017/8/4 22:02,0.5,3,0.5,5,1,16
2017/8/4 22:03,0.5,2,0.5,5,0.9,16
2017/8/4 22:04,0.5,2,0.5,5,1.3,1
2017/8/4 22:05,0.5,2,0.5,5,1.3,2
2017/8/4 22:06,0.5,2,0.5,5,1.3,2
2017/8/4 22:07,0.5,2,0.5,5,0.6,2
2017/8/4 22:08,0.4,1,0.5,4,0.5,3
2017/8/4 22:09,0.4,2,0.4,4,0.4,1
2017/8/4 22:10,0.4,2,0.4,3,0.9,2
2017/8/4 22:11,0.4,1,0.4,3,0.8,16
2017/8/4 22:12,0.4,2,0.4,3,1.5,3
2017/8/4 22:13,0.5,2,0.5,2,1.5,3
2017/8/4 22:14,0.6,2,0.6,2,1.6,4
2017/8/4 22:15,0.6,2,0.6,2,1.3,3
2017/8/4 22:16,0.6,2,0.6,2,1.3,3
2017/8/4 22:17,0.7,2,0.7,2,1.3,3
2017/8/4 22:18,0.7,2,0.7,2,1.1,3
2017/8/4 22:19,0.8,2,0.8,2,0.8,2
2017/8/4 22:20,0.8,3,0.8,2,1.5,4
2017/8/4 22:21,0.9,3,0.9,3,1.4,5
2017/8/4 22:22,0.8,3,0.9,3,1,5
2017/8/4 22:23,0.7,3,0.8,3,0.5,1
2017/8/4 22:24,0.7,3,0.7,3,1.3,2
2017/8/4 22:25,0.7,3,0.7,3,1.3,3
2017/8/4 22:26,0.7,3,0.7,3,1.5,4
2017/8/4 22:27,0.7,3,0.7,3,1,3
2017/8/4 22:28,0.7,3,0.7,3,1.4,3
2017/8/4 22:29,0.8,3,0.8,3,1.6,4
2017/8/4 22:30,0.8,3,0.9,3,1.4,4
2017/8/4 22:31,0.8,3,0.8,3,1.3,4
2017/8/4 22:32,0.9,3,0.9,3,1.5,6
2017/8/4 22:33,1,3,1,3,1.5,3
2017/8/4 22:34,1,3,1,3,0.9,5
2017/8/4 22:35,1,4,1,3,1.4,3
2017/8/4 22:36,0.9,4,1,3,1.4,3
2017/8/4 22:37,1,4,1,3,1.9,3
2017/8/4 22:38,1,4,1,3,1.6,4
2017/8/4 22:39,0.9,4,1,3,1.1,5
2017/8/4 22:40,0.9,4,0.9,3,1.3,6
2017/8/4 22:41,0.9,5,0.9,3,1.3,6
2017/8/4 22:42,0.9,5,0.9,3,2.1,8
2017/8/4 22:43,0.9,5,0.9,3,1.6,8
2017/8/4 22:44,0.8,6,0.9,3,1.3,8
2017/8/4 22:45,0.8,6,0.9,4,1.4,7
2017/8/4 22:46,0.9,6,0.9,4,1.5,7
2017/8/4 22:47,0.8,7,0.9,4,1.8,9